N5CSU Weather Reports


time (UTC)temp
C
wind
direction
speed
KPH
gust
KPH
rain 1hr
cm
rain 24hr
cm
rain mn
cm
humidity
%
barometer
mb
20260905032348 31 198 0.0 0.0 0.00 0.00 0.00 59 1013.5
20260905031843 31 204 0.0 0.0 0.00 0.00 0.00 59 1013.5
20260905031339 31 203 0.0 0.0 0.00 0.00 0.00 58 1013.4
20260905030833 31 198 0.0 0.0 0.00 0.00 0.00 58 1013.5
20260905030329 31 198 0.0 0.0 0.00 0.00 0.00 58 1013.4
20260905025828 31 196 0.0 0.0 0.00 0.00 0.00 57 1013.4
20260905025324 31 214 0.0 0.0 0.00 0.00 0.00 57 1013.2
20260905024820 31 208 0.0 0.0 0.00 0.00 0.00 56 1013.1
20260905024315 31 201 0.0 0.0 0.00 0.00 0.00 56 1013.1
20260905023805 32 201 0.0 0.0 0.00 0.00 0.00 55 1013.1
20260905023300 32 194 0.0 0.0 0.00 0.00 0.00 55 1013.0
20260905022759 32 207 0.0 0.0 0.00 0.00 0.00 55 1013.0
20260905022255 32 193 0.0 0.0 0.00 0.00 0.00 54 1012.8
20260905021754 32 214 0.0 0.0 0.00 0.00 0.00 54 1012.7
20260905021249 32 203 0.0 0.0 0.00 0.00 0.00 54 1012.6
20260905020744 32 183 0.0 0.0 0.00 0.00 0.00 53 1012.4
20260905020240 32 205 0.0 0.0 0.00 0.00 0.00 54 1012.4
20260905015738 32 203 0.0 0.0 0.00 0.00 0.00 54 1012.4
20260905015233 32 197 0.0 0.0 0.00 0.00 0.00 53 1012.3
20260905014732 32 195 0.0 0.0 0.00 0.00 0.00 53 1012.2
20260905014227 32 203 0.0 0.0 0.00 0.00 0.00 53 1012.2
20260905013723 32 198 0.0 0.0 0.00 0.00 0.00 52 1012.1
20260905013219 32 199 0.0 0.0 0.00 0.00 0.00 52 1012.1
20260905012714 33 197 0.0 0.0 0.00 0.00 0.00 52 1012.0
20260905012210 33 204 0.0 0.0 0.00 0.00 0.00 52 1012.0
20260905011706 33 215 0.0 0.0 0.00 0.00 0.00 51 1012.2
20260905011201 33 123 0.0 0.0 0.00 0.00 0.00 51 1012.1
20260905010656 33 123 0.0 0.0 0.00 0.00 0.00 50 1011.8
20260905010152 33 208 0.0 0.0 0.00 0.00 0.00 50 1011.6
20260905005648 33 204 0.0 0.0 0.00 0.00 0.00 50 1011.7
20260905005143 33 193 0.0 0.0 0.00 0.00 0.00 50 1011.8
20260905004637 33 193 0.0 0.0 0.00 0.00 0.00 50 1011.8
20260905004133 33 186 0.0 0.0 0.00 0.00 0.00 49 1011.6
20260905003628 33 199 0.0 0.0 0.00 0.00 0.00 49 1011.7
20260905003124 33 201 0.0 0.0 0.00 0.00 0.00 49 1011.6
20260905002619 34 199 0.0 0.0 0.00 0.00 0.00 48 1011.7
20260905002114 34 205 0.0 0.0 0.00 0.00 0.00 49 1011.5
20260905001609 34 203 0.0 0.0 0.00 0.00 0.00 48 1011.4
20260905001108 34 202 0.0 1.6 0.00 0.00 0.00 47 1011.3
20260905000603 35 208 0.0 0.0 0.00 0.00 0.00 46 1011.5
20260905000100 35 162 3.2 3.2 0.00 0.00 0.00 46 1011.4
20260904235554 35 209 0.0 1.6 0.00 0.00 0.00 47 1011.4
20260904235054 35 187 0.0 0.0 0.00 0.00 0.00 46 1011.3
20260904234549 35 174 0.0 0.0 0.00 0.00 0.00 46 1011.2
20260904234045 35 194 0.0 0.0 0.00 0.00 0.00 46 1011.4
20260904233545 35 196 0.0 0.0 0.00 0.00 0.00 47 1011.3
20260904233041 35 192 0.0 1.6 0.00 0.00 0.00 46 1011.3
20260904232537 35 205 0.0 0.0 0.00 0.00 0.00 46 1011.1
20260904232034 35 197 0.0 1.6 0.00 0.00 0.00 45 1011.3
20260904231530 35 201 0.0 1.6 0.00 0.00 0.00 47 1011.2
20260904231030 36 209 0.0 0.0 0.00 0.00 0.00 46 1011.2
20260904230529 36 192 0.0 0.0 0.00 0.00 0.00 46 1011.3
20260904230025 36 224 0.0 0.0 0.00 0.00 0.00 47 1011.2
20260904225522 36 194 1.6 1.6 0.00 0.00 0.00 47 1011.1
20260904225021 35 168 1.6 1.6 0.00 0.00 0.00 47 1011.3
20260904224517 36 194 0.0 0.0 0.00 0.00 0.00 47 1011.3
20260904224017 36 185 0.0 1.6 0.00 0.00 0.00 47 1011.4
20260904223516 35 191 0.0 0.0 0.00 0.00 0.00 48 1011.4
20260904223012 35 211 0.0 0.0 0.00 0.00 0.00 48 1011.4
20260904222508 36 222 0.0 0.0 0.00 0.00 0.00 47 1011.5
20260904222008 36 194 0.0 0.0 0.00 0.00 0.00 47 1011.6
20260904221502 36 211 0.0 0.0 0.00 0.00 0.00 47 1011.4
20260904220957 36 194 0.0 0.0 0.00 0.00 0.00 46 1011.4
20260904220456 36 180 1.6 1.6 0.00 0.00 0.00 46 1011.5
20260904215952 36 237 1.6 3.2 0.00 0.00 0.00 45 1011.4
20260904215447 36 213 0.0 0.0 0.00 0.00 0.00 45 1011.5
20260904214943 36 160 1.6 1.6 0.00 0.00 0.00 47 1011.6
20260904214438 36 177 3.2 3.2 0.00 0.00 0.00 47 1011.7
20260904213933 36 201 0.0 0.0 0.00 0.00 0.00 45 1011.8
20260904213426 36 211 0.0 0.0 0.00 0.00 0.00 46 1011.7
20260904212923 36 200 0.0 0.0 0.00 0.00 0.00 45 1011.6
20260904212422 36 202 0.0 1.6 0.00 0.00 0.00 45 1011.9
20260904211918 36 212 1.6 1.6 0.00 0.00 0.00 44 1012.0
20260904211413 36 182 0.0 0.0 0.00 0.00 0.00 46 1011.8
20260904210908 36 139 0.0 1.6 0.00 0.00 0.00 46 1012.0
20260904210407 36 218 1.6 1.6 0.00 0.00 0.00 44 1012.0
20260904205903 37 205 0.0 0.0 0.00 0.00 0.00 44 1012.1
20260904205358 37 231 0.0 0.0 0.00 0.00 0.00 43 1012.1
20260904204855 37 214 0.0 0.0 0.00 0.00 0.00 44 1012.0
20260904204351 36 199 0.0 0.0 0.00 0.00 0.00 45 1012.2
20260904203847 36 184 0.0 0.0 0.00 0.00 0.00 45 1012.2
20260904203343 36 156 0.0 0.0 0.00 0.00 0.00 45 1012.2
20260904202838 36 196 0.0 0.0 0.00 0.00 0.00 46 1012.5
20260904202335 36 204 0.0 0.0 0.00 0.00 0.00 46 1012.3
20260904201830 36 177 1.6 1.6 0.00 0.00 0.00 47 1012.6
20260904201325 36 211 1.6 1.6 0.00 0.00 0.00 46 1012.7
20260904200820 36 189 0.0 0.0 0.00 0.00 0.00 47 1012.6
20260904200318 35 181 1.6 1.6 0.00 0.00 0.00 48 1012.6
20260904195814 35 213 0.0 0.0 0.00 0.00 0.00 48 1013.0
20260904195312 36 195 0.0 1.6 0.00 0.00 0.00 48 1012.9
20260904194807 36 207 0.0 1.6 0.00 0.00 0.00 46 1013.1
20260904194306 36 206 0.0 0.0 0.00 0.00 0.00 45 1013.1
20260904193801 35 184 0.0 1.6 0.00 0.00 0.00 47 1013.2
20260904193257 36 206 1.6 1.6 0.00 0.00 0.00 47 1013.3
20260904192752 36 200 0.0 1.6 0.00 0.00 0.00 46 1013.3
20260904192247 36 194 3.2 3.2 0.00 0.00 0.00 45 1013.3
20260904191744 36 181 0.0 1.6 0.00 0.00 0.00 46 1013.4
20260904191240 36 195 1.6 1.6 0.00 0.00 0.00 46 1013.5
20260904190736 36 194 1.6 1.6 0.00 0.00 0.00 47 1013.4
20260904190232 36 201 0.0 0.0 0.00 0.00 0.00 47 1013.5
20260904185728 36 231 1.6 1.6 0.00 0.00 0.00 46 1013.6
20260904185222 36 199 0.0 0.0 0.00 0.00 0.00 48 1013.6
20260904184721 35 215 0.0 1.6 0.00 0.00 0.00 46 1013.8
20260904184217 36 208 1.6 1.6 0.00 0.00 0.00 47 1013.8
20260904183713 35 193 0.0 0.0 0.00 0.00 0.00 48 1013.7
20260904183213 35 237 1.6 3.2 0.00 0.00 0.00 47 1013.9
20260904182708 36 206 0.0 1.6 0.00 0.00 0.00 47 1013.9
20260904182203 35 227 0.0 0.0 0.00 0.00 0.00 47 1013.9
20260904181659 35 205 0.0 0.0 0.00 0.00 0.00 48 1014.3
20260904181158 35 182 1.6 1.6 0.00 0.00 0.00 49 1014.2
20260904180654 35 189 1.6 3.2 0.00 0.00 0.00 49 1014.2
20260904180149 35 216 0.0 0.0 0.00 0.00 0.00 47 1014.4
20260904175648 35 186 0.0 1.6 0.00 0.00 0.00 49 1014.6
20260904175147 35 183 1.6 1.6 0.00 0.00 0.00 48 1014.6
20260904174641 35 205 0.0 0.0 0.00 0.00 0.00 49 1014.6
20260904174137 35 197 1.6 1.6 0.00 0.00 0.00 50 1014.6
20260904173633 34 198 0.0 0.0 0.00 0.00 0.00 51 1014.5
20260904173123 34 193 0.0 0.0 0.00 0.00 0.00 52 1014.9
20260904172619 34 188 0.0 0.0 0.00 0.00 0.00 52 1014.8
20260904172118 34 222 0.0 0.0 0.00 0.00 0.00 52 1015.0
20260904171613 34 248 0.0 0.0 0.00 0.00 0.00 53 1014.9
20260904171108 34 183 1.6 3.2 0.00 0.00 0.00 52 1015.1
20260904170604 34 204 1.6 3.2 0.00 0.00 0.00 55 1015.1
20260904170054 34 20 0.0 1.6 0.00 0.00 0.00 56 1015.0
20260904165552 33 194 0.0 1.6 0.00 0.00 0.00 56 1015.0
20260904165047 33 210 0.0 0.0 0.00 0.00 0.00 55 1015.1
20260904164542 34 195 0.0 0.0 0.00 0.00 0.00 57 1014.9
20260904164038 34 192 1.6 3.2 0.00 0.00 0.00 58 1015.3
20260904163537 33 206 0.0 0.0 0.00 0.00 0.00 58 1015.3
20260904163033 33 209 0.0 0.0 0.00 0.00 0.00 60 1015.4
20260904162527 33 162 0.0 1.6 0.00 0.00 0.00 60 1015.2
20260904162022 33 185 0.0 0.0 0.00 0.00 0.00 60 1015.0
20260904161517 33 200 0.0 0.0 0.00 0.00 0.00 60 1015.0
20260904161012 32 192 0.0 0.0 0.00 0.00 0.00 62 1015.0
20260904160507 32 38 0.0 1.6 0.00 0.00 0.00 63 1015.1
20260904160003 32 223 1.6 1.6 0.00 0.00 0.00 63 1015.3
20260904155502 32 204 0.0 0.0 0.00 0.00 0.00 66 1015.3
20260904155001 31 207 0.0 0.0 0.00 0.00 0.00 69 1015.3
20260904154455 31 197 1.6 1.6 0.00 0.00 0.00 69 1015.3
20260904153950 31 204 0.0 0.0 0.00 0.00 0.00 71 1015.0
20260904153445 30 202 0.0 0.0 0.00 0.00 0.00 72 1015.2
20260904152942 30 246 0.0 1.6 0.00 0.00 0.00 72 1015.2
20260904152437 30 205 0.0 0.0 0.00 0.00 0.00 73 1015.2
20260904151937 30 212 0.0 0.0 0.00 0.00 0.00 74 1015.1
20260904151432 30 182 0.0 0.0 0.00 0.00 0.00 76 1015.0
20260904150927 30 193 0.0 1.6 0.00 0.00 0.00 76 1014.9
20260904150422 29 233 1.6 1.6 0.00 0.00 0.00 77 1015.2
20260904145920 29 190 0.0 0.0 0.00 0.00 0.00 78 1015.0
20260904145416 29 208 0.0 0.0 0.00 0.00 0.00 79 1015.1
20260904144911 28 160 0.0 0.0 0.00 0.00 0.00 80 1015.0
20260904144401 28 184 1.6 3.2 0.00 0.00 0.00 80 1015.2
20260904143856 28 188 0.0 0.0 0.00 0.00 0.00 82 1015.1
20260904143354 28 217 0.0 0.0 0.00 0.00 0.00 82 1015.3
20260904142850 28 210 0.0 0.0 0.00 0.00 0.00 82 1015.3
20260904142345 28 204 0.0 0.0 0.00 0.00 0.00 83 1015.2
20260904141844 28 212 0.0 0.0 0.00 0.00 0.00 84 1015.1
20260904141340 27 211 0.0 0.0 0.00 0.00 0.00 85 1015.2
20260904140836 27 190 0.0 0.0 0.00 0.00 0.00 86 1015.3
20260904140331 27 213 0.0 0.0 0.00 0.00 0.00 86 1015.1
20260904135830 27 219 0.0 0.0 0.00 0.00 0.00 86 1015.1
20260904135325 27 184 0.0 1.6 0.00 0.00 0.00 87 1015.1
20260904134816 27 189 0.0 0.0 0.00 0.00 0.00 88 1015.1
20260904134315 26 183 0.0 0.0 0.00 0.00 0.00 88 1014.9
20260904133810 26 183 0.0 0.0 0.00 0.00 0.00 89 1014.9
20260904133306 26 204 0.0 0.0 0.00 0.00 0.00 89 1014.8
20260904132805 26 189 0.0 0.0 0.00 0.00 0.00 89 1014.8
20260904132301 26 138 0.0 0.0 0.00 0.00 0.00 90 1014.8
20260904131800 26 200 0.0 0.0 0.00 0.00 0.00 90 1014.5
20260904131256 25 183 0.0 0.0 0.00 0.00 0.00 91 1014.8
20260904130755 25 204 0.0 0.0 0.00 0.00 0.00 91 1014.7
20260904130255 25 184 0.0 0.0 0.00 0.00 0.00 91 1014.7
20260904125751 25 137 0.0 0.0 0.00 0.00 0.00 91 1014.7
20260904125247 25 193 0.0 0.0 0.00 0.00 0.00 91 1014.5
20260904124741 25 199 0.0 0.0 0.00 0.00 0.00 91 1014.5
20260904124238 25 199 0.0 0.0 0.00 0.00 0.00 91 1014.6
20260904123737 25 199 0.0 0.0 0.00 0.00 0.00 91 1014.6
20260904123232 25 192 0.0 0.0 0.00 0.00 0.00 91 1014.5
20260904122728 25 202 0.0 0.0 0.00 0.00 0.00 91 1014.4
20260904122222 25 187 0.0 0.0 0.00 0.00 0.00 91 1014.5
20260904121718 25 186 0.0 0.0 0.00 0.00 0.00 91 1014.2
20260904121214 25 202 0.0 0.0 0.00 0.00 0.00 91 1014.4
20260904120710 25 202 0.0 0.0 0.00 0.00 0.00 92 1014.3
20260904120206 25 202 0.0 0.0 0.00 0.00 0.00 91 1014.4
20260904115701 25 202 0.0 0.0 0.00 0.00 0.00 91 1014.1
20260904115201 25 202 0.0 0.0 0.00 0.00 0.00 91 1014.4
20260904114655 25 202 0.0 0.0 0.00 0.00 0.00 91 1014.2
20260904114149 25 209 0.0 0.0 0.00 0.00 0.00 90 1014.2
20260904113644 25 209 0.0 0.0 0.00 0.00 0.00 90 1014.1
20260904113143 25 209 0.0 0.0 0.00 0.00 0.00 90 1014.2
20260904112639 25 209 0.0 0.0 0.00 0.00 0.00 90 1013.9
20260904112135 25 212 0.0 0.0 0.00 0.00 0.00 90 1014.0
20260904111630 25 206 0.0 0.0 0.00 0.00 0.00 90 1013.8
20260904111126 25 199 0.0 0.0 0.00 0.00 0.00 89 1014.0
20260904110620 25 198 0.0 0.0 0.00 0.00 0.00 89 1014.0
20260904110120 25 201 0.0 0.0 0.00 0.00 0.00 89 1013.9
20260904105614 25 201 0.0 0.0 0.00 0.00 0.00 88 1013.9
20260904105109 25 201 0.0 0.0 0.00 0.00 0.00 88 1013.9
20260904104605 25 201 0.0 0.0 0.00 0.00 0.00 88 1014.1
20260904104100 25 201 0.0 0.0 0.00 0.00 0.00 88 1014.0
20260904103555 25 204 0.0 0.0 0.00 0.00 0.00 87 1013.7
20260904103052 25 204 0.0 0.0 0.00 0.00 0.00 88 1013.7
20260904102548 25 204 0.0 0.0 0.00 0.00 0.00 88 1013.8
20260904102042 25 204 0.0 0.0 0.00 0.00 0.00 88 1013.8
20260904101539 25 201 0.0 0.0 0.00 0.00 0.00 88 1013.7
20260904101034 25 194 0.0 0.0 0.00 0.00 0.00 87 1013.7
20260904100530 25 198 0.0 0.0 0.00 0.00 0.00 87 1013.7
20260904100025 25 203 0.0 0.0 0.00 0.00 0.00 87 1013.6
20260904095520 25 203 0.0 0.0 0.00 0.00 0.00 87 1013.5
20260904095015 25 206 0.0 0.0 0.00 0.00 0.00 87 1013.6
20260904094509 25 208 0.0 0.0 0.00 0.00 0.00 87 1013.4
20260904094005 25 207 0.0 0.0 0.00 0.00 0.00 86 1013.6
20260904093502 25 209 0.0 0.0 0.00 0.00 0.00 86 1013.4
20260904092956 25 209 0.0 0.0 0.00 0.00 0.00 86 1013.4
20260904092453 25 212 0.0 0.0 0.00 0.00 0.00 86 1013.8
20260904091948 25 208 0.0 0.0 0.00 0.00 0.00 86 1013.6
20260904091444 25 189 0.0 0.0 0.00 0.00 0.00 85 1013.6
20260904090938 25 209 0.0 0.0 0.00 0.00 0.00 85 1013.8
20260904090434 25 208 0.0 0.0 0.00 0.00 0.00 85 1013.7
20260904085929 25 187 0.0 0.0 0.00 0.00 0.00 85 1013.7
20260904085424 25 199 0.0 0.0 0.00 0.00 0.00 85 1013.6
20260904084919 25 201 0.0 0.0 0.00 0.00 0.00 85 1013.5
20260904084416 25 200 0.0 0.0 0.00 0.00 0.00 85 1013.5
20260904083910 25 201 0.0 0.0 0.00 0.00 0.00 85 1013.7
20260904083407 25 200 0.0 0.0 0.00 0.00 0.00 84 1013.6
20260904082857 25 196 0.0 0.0 0.00 0.00 0.00 84 1013.6
20260904082357 25 198 0.0 0.0 0.00 0.00 0.00 84 1013.6
20260904081852 25 194 0.0 0.0 0.00 0.00 0.00 84 1013.4
20260904081347 25 191 0.0 0.0 0.00 0.00 0.00 84 1013.4
20260904080843 25 189 0.0 0.0 0.00 0.00 0.00 84 1013.4
20260904080339 25 198 0.0 0.0 0.00 0.00 0.00 84 1013.4
20260904075835 25 198 0.0 0.0 0.00 0.00 0.00 83 1013.7
20260904075330 25 189 0.0 0.0 0.00 0.00 0.00 84 1013.4
20260904074829 25 202 0.0 0.0 0.00 0.00 0.00 83 1013.4
20260904074324 25 202 0.0 0.0 0.00 0.00 0.00 83 1013.3
20260904073819 25 194 0.0 0.0 0.00 0.00 0.00 83 1013.2
20260904073315 25 204 0.0 0.0 0.00 0.00 0.00 83 1013.4
20260904072811 26 200 0.0 0.0 0.00 0.00 0.00 83 1013.5
20260904072310 26 200 0.0 0.0 0.00 0.00 0.00 83 1013.5
20260904071805 26 202 0.0 0.0 0.00 0.00 0.00 83 1013.4
20260904071300 26 203 0.0 0.0 0.00 0.00 0.00 82 1013.3
20260904070755 26 204 0.0 0.0 0.00 0.00 0.00 82 1013.4
20260904070254 26 204 0.0 0.0 0.00 0.00 0.00 82 1013.3
20260904065749 26 209 0.0 0.0 0.00 0.00 0.00 82 1013.7
20260904065246 26 207 0.0 0.0 0.00 0.00 0.00 81 1013.8
20260904064745 26 189 0.0 0.0 0.00 0.00 0.00 81 1013.8
20260904064241 26 203 0.0 0.0 0.00 0.00 0.00 81 1013.8
20260904063737 26 202 0.0 0.0 0.00 0.00 0.00 80 1013.6
20260904063233 26 195 0.0 0.0 0.00 0.00 0.00 80 1013.9
20260904062728 26 202 0.0 0.0 0.00 0.00 0.00 80 1013.6
20260904062224 26 224 0.0 0.0 0.00 0.00 0.00 79 1013.6
20260904061720 26 201 0.0 0.0 0.00 0.00 0.00 79 1013.7
20260904061216 26 205 0.0 0.0 0.00 0.00 0.00 79 1013.6
20260904060713 26 197 0.0 0.0 0.00 0.00 0.00 78 1013.6
20260904060208 26 210 0.0 0.0 0.00 0.00 0.00 78 1013.5
20260904055703 26 235 0.0 0.0 0.00 0.00 0.00 78 1013.8
20260904055158 26 214 0.0 0.0 0.00 0.00 0.00 78 1013.7
20260904054654 26 195 0.0 0.0 0.00 0.00 0.00 77 1013.7
20260904054150 26 202 0.0 0.0 0.00 0.00 0.00 77 1013.8
20260904053650 27 203 0.0 0.0 0.00 0.00 0.00 77 1013.6
20260904053144 27 129 0.0 0.0 0.00 0.00 0.00 77 1013.6
20260904052641 27 358 0.0 0.0 0.00 0.00 0.00 77 1013.6
20260904052136 27 201 0.0 0.0 0.00 0.00 0.00 76 1013.6
20260904051633 27 191 0.0 0.0 0.00 0.00 0.00 76 1013.7
20260904051132 27 207 0.0 0.0 0.00 0.00 0.00 76 1013.6
20260904050628 27 195 0.0 0.0 0.00 0.00 0.00 75 1013.7
20260904050125 27 217 0.0 0.0 0.00 0.00 0.00 75 1013.6
20260904045624 27 199 0.0 0.0 0.00 0.00 0.00 75 1013.5
20260904045119 27 209 0.0 0.0 0.00 0.00 0.00 75 1013.7
20260904044614 27 184 0.0 0.0 0.00 0.00 0.00 75 1013.8
20260904044111 27 192 0.0 0.0 0.00 0.00 0.00 75 1013.5
20260904043607 27 193 0.0 0.0 0.00 0.00 0.00 76 1013.8
20260904043103 27 203 0.0 0.0 0.00 0.00 0.00 75 1013.7
20260904042559 27 179 1.6 1.6 0.00 0.00 0.00 75 1013.6
20260904042054 27 226 0.0 0.0 0.00 0.00 0.00 75 1013.9
20260904041550 27 203 0.0 0.0 0.00 0.00 0.00 74 1013.8
20260904041046 27 214 0.0 0.0 0.00 0.00 0.00 74 1013.7
20260904040546 27 180 0.0 1.6 0.00 0.00 0.00 74 1013.8
20260904040042 27 200 0.0 0.0 0.00 0.00 0.00 73 1013.7
20260904035537 27 198 0.0 0.0 0.00 0.00 0.00 73 1013.7
20260904035036 27 185 0.0 0.0 0.00 0.00 0.00 72 1013.6
20260904034531 27 196 0.0 0.0 0.00 0.00 0.00 72 1013.7
20260904034027 27 199 0.0 1.6 0.00 0.00 0.00 71 1013.9
20260904033523 27 190 0.0 0.0 0.00 0.00 0.00 70 1014.0
20260904033020 27 197 0.0 0.0 0.00 0.00 0.00 70 1013.8
20260904032514 27 84 1.6 3.2 0.00 0.00 0.00 69 1013.7